,,Stat6,,Stat2,,Stat8,,Stat9,,Stat10,,Wind1,,Wind1,
time,status,PA1M_AVG,status,PR1M_SUM,status,RH1M_AVG,status,SR1M_AVG,status,TA1M_AVG,status,W1dAve1m,status,W1sAve1m,
2004-11-30, 00:00:00,VALID,918.591,VALID,0,VALID,100,VALID,0,VALID,20.7268,VALID,14,VALID,0,
2004-11-30, 00:01:00,VALID,918.593,VALID,0,VALID,100,VALID,0,VALID,20.7106,VALID,14,VALID,0,
2004-11-30, 00:02:00,VALID,918.583,VALID,0,VALID,100,VALID,-0.0339617,VALID,20.6883,VALID,14,VALID,0,
2004-11-30, 00:03:00,VALID,918.568,VALID,0,VALID,100,VALID,0,VALID,20.6845,VALID,14,VALID,0,
2004-11-30, 00:04:00,VALID,918.555,VALID,0,VALID,100,VALID,-0.0339617,VALID,20.6786,VALID,14,VALID,0,
2004-11-30, 00:05:00,VALID,918.551,VALID,0,VALID,100,VALID,-0.0169808,VALID,20.652,VALID,14,VALID,0,
2004-11-30, 00:06:00,VALID,918.553,VALID,0,VALID,100,VALID,-0.0169808,VALID,20.6592,VALID,14,VALID,0,
2004-11-30, 00:07:00,VALID,918.549,VALID,0,VALID,100,VALID,0,VALID,20.6364,VALID,14,VALID,0,
2004-11-30, 00:08:00,VALID,918.542,VALID,0,VALID,100,VALID,0,VALID,20.6331,VALID,14,VALID,0,
2004-11-30, 00:09:00,VALID,918.542,VALID,0,VALID,100,VALID,-0.0509425,VALID,20.6073,VALID,14,VALID,0,
2004-11-30, 00:10:00,VALID,918.549,VALID,0,VALID,100,VALID,-0.0169808,VALID,20.5944,VALID,14,VALID,0,
2004-11-30, 00:11:00,VALID,918.55,VALID,0,VALID,100,VALID,0,VALID,20.5882,VALID,14,VALID,0.0815972,
2004-11-30, 00:12:00,VALID,918.565,VALID,0,VALID,100,VALID,-0.0339617,VALID,20.5747,VALID,14,VALID,0.0415483,
2004-11-30, 00:13:00,VALID,918.569,VALID,0,VALID,100,VALID,-0.0169808,VALID,20.5817,VALID,14,VALID,0.0704942,
2004-11-30, 00:14:00,VALID,918.568,VALID,0,VALID,100,VALID,-0.0169808,VALID,20.565,VALID,14,VALID,0.0675223,
2004-11-30, 00:15:00,VALID,918.565,VALID,0,VALID,100,VALID,0,VALID,20.5817,VALID,14,VALID,0,
2004-11-30, 00:16:00,VALID,918.561,VALID,0,VALID,100,VALID,0,VALID,20.5685,VALID,14,VALID,0.0372024,
2004-11-30, 00:17:00,VALID,918.539,VALID,0,VALID,100,VALID,0,VALID,20.5782,VALID,14,VALID,0,
2004-11-30, 00:18:00,VALID,918.519,VALID,0,VALID,100,VALID,0,VALID,20.575,VALID,14,VALID,0,
2004-11-30, 00:19:00,VALID,918.498,VALID,0,VALID,100,VALID,0.0169808,VALID,20.5618,VALID,14,VALID,0,
2004-11-30, 00:20:00,VALID,918.471,VALID,0,VALID,100,VALID,-0.0169808,VALID,20.533,VALID,10,VALID,0.222098,
2004-11-30, 00:21:00,VALID,918.45,VALID,0,VALID,100,VALID,-0.0169808,VALID,20.5303,VALID,10,VALID,0.11059,
2004-11-30, 00:22:00,VALID,918.429,VALID,0,VALID,100,VALID,0,VALID,20.536,VALID,10,VALID,0,
2004-11-30, 00:23:00,VALID,918.405,VALID,0,VALID,100,VALID,-0.0169808,VALID,20.5526,VALID,10,VALID,0,
2004-11-30, 00:24:00,VALID,918.39,VALID,0,VALID,100,VALID,0,VALID,20.5561,VALID,10,VALID,0,
2004-11-30, 00:25:00,VALID,918.381,VALID,0,VALID,100,VALID,0,VALID,20.5688,VALID,10,VALID,0,
2004-11-30, 00:26:00,VALID,918.373,VALID,0,VALID,100,VALID,0,VALID,20.5688,VALID,10,VALID,0,
2004-11-30, 00:27:00,VALID,918.354,VALID,0,VALID,100,VALID,0,VALID,20.5914,VALID,10,VALID,0.0128906,
2004-11-30, 00:28:00,VALID,918.367,VALID,0,VALID,100,VALID,-0.0169808,VALID,20.5981,VALID,10,VALID,0,
2004-11-30, 00:29:00,VALID,918.369,VALID,0,VALID,100,VALID,-0.0169808,VALID,20.5852,VALID,10,VALID,0.0012718,
2004-11-30, 00:30:00,VALID,918.368,VALID,0,VALID,100,VALID,-0.0339617,VALID,20.5782,VALID,10,VALID,0.103277,
2004-11-30, 00:31:00,VALID,918.382,VALID,0,VALID,100,VALID,-0.0339617,VALID,20.5817,VALID,10,VALID,0.165396,
2004-11-30, 00:32:00,VALID,918.379,VALID,0,VALID,100,VALID,-0.0509425,VALID,20.5984,VALID,10,VALID,0.165334,
2004-11-30, 00:33:00,VALID,918.378,VALID,0,VALID,100,VALID,-0.0339617,VALID,20.5951,VALID,10,VALID,0.237602,
2004-11-30, 00:34:00,VALID,918.378,VALID,0,VALID,100,VALID,-0.0509425,VALID,20.5529,VALID,10,VALID,0.317073,
2004-11-30, 00:35:00,VALID,918.379,VALID,0,VALID,100,VALID,-0.0169808,VALID,20.5241,VALID,10,VALID,0.207386,
2004-11-30, 00:36:00,VALID,918.394,VALID,0.2,VALID,100,VALID,-0.0339617,VALID,20.5044,VALID,10,VALID,0,
2004-11-30, 00:37:00,VALID,918.389,VALID,0,VALID,100,VALID,-0.0509425,VALID,20.4851,VALID,10,VALID,0,
2004-11-30, 00:38:00,VALID,918.387,VALID,0,VALID,100,VALID,-0.0339617,VALID,20.4619,VALID,10,VALID,0,
2004-11-30, 00:39:00,VALID,918.394,VALID,0,VALID,100,VALID,-0.0679233,VALID,20.4853,VALID,10,VALID,0,
2004-11-30, 00:40:00,VALID,918.382,VALID,0,VALID,100,VALID,-0.0339617,VALID,20.4883,VALID,10,VALID,0,
2004-11-30, 00:41:00,VALID,918.38,VALID,0,VALID,100,VALID,-0.0339617,VALID,20.4888,VALID,10,VALID,0,
2004-11-30, 00:42:00,VALID,918.376,VALID,0,VALID,100,VALID,-0.0169808,VALID,20.4689,VALID,10,VALID,0,
2004-11-30, 00:43:00,VALID,918.367,VALID,0,VALID,100,VALID,0,VALID,20.4724,VALID,10,VALID,0,
2004-11-30, 00:44:00,VALID,918.361,VALID,0,VALID,100,VALID,-0.0169808,VALID,20.4463,VALID,10,VALID,0.122196,
2004-11-30, 00:45:00,VALID,918.354,VALID,0,VALID,100,VALID,-0.0509425,VALID,20.4528,VALID,10,VALID,0.0575284,
2004-11-30, 00:46:00,VALID,918.336,VALID,0,VALID,100,VALID,-0.0339617,VALID,20.4398,VALID,10,VALID,0,
2004-11-30, 00:47:00,VALID,918.328,VALID,0,VALID,100,VALID,0.0169808,VALID,20.4428,VALID,10,VALID,0,
2004-11-30, 00:48:00,VALID,918.318,VALID,0,VALID,100,VALID,0,VALID,20.4358,VALID,10,VALID,0,
2004-11-30, 00:49:00,VALID,918.294,VALID,0,VALID,100,VALID,0,VALID,20.4393,VALID,10,VALID,0,
2004-11-30, 00:50:00,VALID,918.293,VALID,0,VALID,100,VALID,0,VALID,20.4463,VALID,10,VALID,0,
2004-11-30, 00:51:00,VALID,918.287,VALID,0,VALID,100,VALID,0.0169808,VALID,20.4552,VALID,10,VALID,0,
2004-11-30, 00:52:00,VALID,918.274,VALID,0,VALID,100,VALID,0.0509425,VALID,20.4716,VALID,10,VALID,0,
2004-11-30, 00:53:00,VALID,918.269,VALID,0,VALID,100,VALID,0.0169808,VALID,20.4751,VALID,10,VALID,0,
2004-11-30, 00:54:00,VALID,918.256,VALID,0,VALID,100,VALID,0,VALID,20.4654,VALID,10,VALID,0,
2004-11-30, 00:55:00,VALID,918.245,VALID,0,VALID,100,VALID,0,VALID,20.4433,VALID,10,VALID,0,
2004-11-30, 00:56:00,VALID,918.227,VALID,0,VALID,100,VALID,-0.0169808,VALID,20.4468,VALID,10,VALID,0,
2004-11-30, 00:57:00,VALID,918.207,VALID,0,VALID,100,VALID,0,VALID,20.4336,VALID,10,VALID,0,
2004-11-30, 00:58:00,VALID,918.19,VALID,0,VALID,100,VALID,0.0169808,VALID,20.4363,VALID,10,VALID,0,
2004-11-30, 00:59:00,VALID,918.167,VALID,0,VALID,100,VALID,0.0169808,VALID,20.4331,VALID,10,VALID,0,
2004-11-30, 01:00:00,VALID,918.137,VALID,0,VALID,100,VALID,0,VALID,20.4143,VALID,10,VALID,0,
2004-11-30, 01:01:00,VALID,918.109,VALID,0,VALID,100,VALID,0,VALID,20.3882,VALID,10,VALID,0,
2004-11-30, 01:02:00,VALID,918.072,VALID,0,VALID,100,VALID,-0.0849042,VALID,20.3631,VALID,10,VALID,0,
2004-11-30, 01:03:00,VALID,918.059,VALID,0,VALID,100,VALID,-0.118866,VALID,20.3509,VALID,10,VALID,0.173971,
2004-11-30, 01:04:00,VALID,918.022,VALID,0,VALID,100,VALID,-0.101885,VALID,20.3447,VALID,10,VALID,0.385243,
2004-11-30, 01:05:00,VALID,917.997,VALID,0,VALID,100,VALID,-0.101885,VALID,20.3412,VALID,10,VALID,0.216518,
2004-11-30, 01:06:00,VALID,917.987,VALID,0,VALID,100,VALID,-0.101885,VALID,20.3219,VALID,10,VALID,0.25,
2004-11-30, 01:07:00,VALID,917.973,VALID,0,VALID,100,VALID,-0.101885,VALID,20.3055,VALID,10,VALID,0.214674,
2004-11-30, 01:08:00,VALID,917.961,VALID,0,VALID,100,VALID,-0.101885,VALID,20.2998,VALID,10,VALID,0.18378,
2004-11-30, 01:09:00,VALID,917.941,VALID,0,VALID,100,VALID,-0.0849042,VALID,20.2896,VALID,10,VALID,0.275534,
2004-11-30, 01:10:00,VALID,917.932,VALID,0,VALID,100,VALID,-0.101885,VALID,20.2764,VALID,10,VALID,0.382422,
2004-11-30, 01:11:00,VALID,917.914,VALID,0,VALID,100,VALID,-0.101885,VALID,20.2766,VALID,10,VALID,0.4375,
2004-11-30, 01:12:00,VALID,917.904,VALID,0,VALID,100,VALID,-0.101885,VALID,20.2575,VALID,10,VALID,0.448847,
2004-11-30, 01:13:00,VALID,917.882,VALID,0,VALID,100,VALID,-0.101885,VALID,20.2478,VALID,10,VALID,0.417969,
2004-11-30, 01:14:00,VALID,917.86,VALID,0,VALID,100,VALID,-0.101885,VALID,20.2344,VALID,10,VALID,0.34446,
2004-11-30, 01:15:00,VALID,917.846,VALID,0,VALID,100,VALID,-0.101885,VALID,20.208,VALID,10,VALID,0.355208,
2004-11-30, 01:16:00,VALID,917.823,VALID,0,VALID,100,VALID,-0.101885,VALID,20.1894,VALID,10,VALID,0.418899,
2004-11-30, 01:17:00,VALID,917.81,VALID,0,VALID,100,VALID,0,VALID,20.175,VALID,10,VALID,0.340972,
2004-11-30, 01:18:00,VALID,917.786,VALID,0,VALID,100,VALID,0.0169808,VALID,20.1683,VALID,10,VALID,0.392805,
2004-11-30, 01:19:00,VALID,917.769,VALID,0,VALID,100,VALID,0.0339617,VALID,20.1653,VALID,23,VALID,0.486471,
2004-11-30, 01:20:00,VALID,917.764,VALID,0,VALID,100,VALID,0.0339617,VALID,20.1556,VALID,31,VALID,0.440278,
2004-11-30, 01:21:00,VALID,917.745,VALID,0,VALID,100,VALID,0,VALID,20.1623,VALID,31,VALID,0.537695,
2004-11-30, 01:22:00,VALID,917.743,VALID,0,VALID,100,VALID,0.0169808,VALID,20.1556,VALID,32,VALID,0.480903,
2004-11-30, 01:23:00,VALID,917.724,VALID,0,VALID,100,VALID,0.0339617,VALID,20.1559,VALID,32,VALID,0.477108,
2004-11-30, 01:24:00,VALID,917.712,VALID,0,VALID,100,VALID,0,VALID,20.1494,VALID,32,VALID,0.410937,
2004-11-30, 01:25:00,VALID,917.713,VALID,0,VALID,100,VALID,0,VALID,20.1491,VALID,32,VALID,0.34392,
2004-11-30, 01:26:00,VALID,917.703,VALID,0,VALID,100,VALID,-0.0339617,VALID,20.1591,VALID,32,VALID,0.379464,
2004-11-30, 01:27:00,VALID,917.684,VALID,0,VALID,100,VALID,0,VALID,20.1593,VALID,32,VALID,0.344444,
2004-11-30, 01:28:00,VALID,917.674,VALID,0,VALID,100,VALID,0,VALID,20.1593,VALID,32,VALID,0.386161,
2004-11-30, 01:29:00,VALID,917.662,VALID,0,VALID,100,VALID,0,VALID,20.1432,VALID,39,VALID,0.575893,
2004-11-30, 01:30:00,VALID,917.642,VALID,0,VALID,100,VALID,0,VALID,20.1402,VALID,83,VALID,0.579397,
2004-11-30, 01:31:00,VALID,917.63,VALID,0,VALID,100,VALID,0,VALID,20.1163,VALID,104,VALID,0.757635,
2004-11-30, 01:32:00,VALID,917.621,VALID,0,VALID,100,VALID,-0.0169808,VALID,20.1106,VALID,114,VALID,0.779018,
2004-11-30, 01:33:00,VALID,917.592,VALID,0,VALID,100,VALID,0,VALID,20.1039,VALID,118,VALID,0.860085,
2004-11-30, 01:34:00,VALID,917.575,VALID,0,VALID,100,VALID,0.0849042,VALID,20.1074,VALID,118,VALID,0.887091,
2004-11-30, 01:35:00,VALID,917.56,VALID,0,VALID,100,VALID,0.0169808,VALID,20.091,VALID,134,VALID,0.993786,
2004-11-30, 01:36:00,VALID,917.539,VALID,0,VALID,100,VALID,0,VALID,20.0945,VALID,137,VALID,0.874414,
2004-11-30, 01:37:00,VALID,917.521,VALID,0,VALID,100,VALID,0,VALID,20.0945,VALID,125,VALID,0.844122,
2004-11-30, 01:38:00,VALID,917.492,VALID,0,VALID,100,VALID,0.0509425,VALID,20.0942,VALID,120,VALID,0.775195,
2004-11-30, 01:39:00,VALID,917.484,VALID,0,VALID,100,VALID,0.0169808,VALID,20.0816,VALID,122,VALID,0.670785,
2004-11-30, 01:40:00,VALID,917.471,VALID,0,VALID,100,VALID,0.0169808,VALID,20.0913,VALID,124,VALID,0.417014,
2004-11-30, 01:41:00,VALID,917.463,VALID,0,VALID,100,VALID,0.0169808,VALID,20.091,VALID,115,VALID,0.53311,
2004-11-30, 01:42:00,VALID,917.448,VALID,0,VALID,100,VALID,0,VALID,20.0975,VALID,111,VALID,0.544457,
2004-11-30, 01:43:00,VALID,917.452,VALID,0,VALID,100,VALID,0.0169808,VALID,20.0975,VALID,115,VALID,0.727273,
2004-11-30, 01:44:00,VALID,917.448,VALID,0,VALID,100,VALID,0.0169808,VALID,20.1201,VALID,123,VALID,0.573583,
2004-11-30, 01:45:00,VALID,917.448,VALID,0,VALID,100,VALID,0,VALID,20.1462,VALID,143,VALID,0.866443,
2004-11-30, 01:46:00,VALID,917.449,VALID,0,VALID,100,VALID,0,VALID,20.1695,VALID,153,VALID,0.959121,
2004-11-30, 01:47:00,VALID,917.442,VALID,0,VALID,100,VALID,0,VALID,20.1889,VALID,149,VALID,0.611133,
2004-11-30, 01:48:00,VALID,917.436,VALID,0,VALID,100,VALID,0,VALID,20.1981,VALID,157,VALID,0.778088,
2004-11-30, 01:49:00,VALID,917.418,VALID,0,VALID,100,VALID,0,VALID,20.2142,VALID,151,VALID,0.330966,
2004-11-30, 01:50:00,VALID,917.418,VALID,0,VALID,100,VALID,0.0169808,VALID,20.2269,VALID,151,VALID,0.642149,
2004-11-30, 01:51:00,VALID,917.396,VALID,0,VALID,100,VALID,0,VALID,20.2471,VALID,165,VALID,0.538876,
2004-11-30, 01:52:00,VALID,917.385,VALID,0,VALID,100,VALID,0,VALID,20.2533,VALID,180,VALID,0.234961,
2004-11-30, 01:53:00,VALID,917.377,VALID,0,VALID,100,VALID,0.0169808,VALID,20.2694,VALID,177,VALID,0.213605,
2004-11-30, 01:54:00,VALID,917.37,VALID,0,VALID,100,VALID,0,VALID,20.2595,VALID,177,VALID,0.161086,
2004-11-30, 01:55:00,VALID,917.373,VALID,0,VALID,100,VALID,0,VALID,20.2657,VALID,176,VALID,0.161156,
2004-11-30, 01:56:00,VALID,917.371,VALID,0.2,VALID,100,VALID,0,VALID,20.2759,VALID,168,VALID,0.315044,
2004-11-30, 01:57:00,VALID,917.363,VALID,0,VALID,100,VALID,-0.0169808,VALID,20.2662,VALID,134,VALID,0.369141,
2004-11-30, 01:58:00,VALID,917.363,VALID,0,VALID,100,VALID,0,VALID,20.2595,VALID,153,VALID,0.234557,
2004-11-30, 01:59:00,VALID,917.36,VALID,0,VALID,100,VALID,0.0169808,VALID,20.253,VALID,160,VALID,0.0630451,
2004-11-30, 02:00:00,VALID,917.368,VALID,0,VALID,100,VALID,0,VALID,20.2503,VALID,160,VALID,0.0103561,
2004-11-30, 02:01:00,VALID,917.359,VALID,0,VALID,100,VALID,0,VALID,20.2369,VALID,159,VALID,0.154474,
2004-11-30, 02:02:00,VALID,917.358,VALID,0,VALID,100,VALID,0,VALID,20.2207,VALID,149,VALID,0.185976,
2004-11-30, 02:03:00,VALID,917.36,VALID,0,VALID,100,VALID,0,VALID,20.2175,VALID,126,VALID,0.0857599,
2004-11-30, 02:04:00,VALID,917.363,VALID,0,VALID,100,VALID,0.0169808,VALID,20.211,VALID,89,VALID,0.177144,
2004-11-30, 02:05:00,VALID,917.363,VALID,0,VALID,100,VALID,0,VALID,20.2148,VALID,71,VALID,0.441406,
2004-11-30, 02:06:00,VALID,917.353,VALID,0,VALID,100,VALID,0.0169808,VALID,20.2046,VALID,67,VALID,0.450586,
2004-11-30, 02:07:00,VALID,917.337,VALID,0,VALID,100,VALID,0.0169808,VALID,20.1981,VALID,65,VALID,0.37862,
2004-11-30, 02:08:00,VALID,917.339,VALID,0,VALID,100,VALID,0,VALID,20.2013,VALID,65,VALID,0.438388,
2004-11-30, 02:09:00,VALID,917.339,VALID,0,VALID,100,VALID,0.0169808,VALID,20.1984,VALID,64,VALID,0.193314,
2004-11-30, 02:10:00,VALID,917.338,VALID,0,VALID,100,VALID,0.0169808,VALID,20.1755,VALID,92,VALID,0.492733,
2004-11-30, 02:11:00,VALID,917.346,VALID,0,VALID,100,VALID,0,VALID,20.1661,VALID,123,VALID,0.621354,
2004-11-30, 02:12:00,VALID,917.336,VALID,0,VALID,100,VALID,0.0169808,VALID,20.1658,VALID,127,VALID,0.60026,
2004-11-30, 02:13:00,VALID,917.34,VALID,0,VALID,100,VALID,-0.0169808,VALID,20.1725,VALID,135,VALID,0.661806,
2004-11-30, 02:14:00,VALID,917.332,VALID,0,VALID,100,VALID,0.0339617,VALID,20.1626,VALID,134,VALID,0.467842,
2004-11-30, 02:15:00,VALID,917.326,VALID,0,VALID,100,VALID,0.0169808,VALID,20.1763,VALID,127,VALID,0.601215,
2004-11-30, 02:16:00,VALID,917.321,VALID,0,VALID,100,VALID,0,VALID,20.1723,VALID,144,VALID,0.812137,
2004-11-30, 02:17:00,VALID,917.309,VALID,0,VALID,100,VALID,0,VALID,20.1854,VALID,142,VALID,0.818537,
2004-11-30, 02:18:00,VALID,917.302,VALID,0,VALID,100,VALID,0,VALID,20.1822,VALID,146,VALID,0.795759,
2004-11-30, 02:19:00,VALID,917.292,VALID,0,VALID,100,VALID,0,VALID,20.1892,VALID,140,VALID,0.750355,
2004-11-30, 02:20:00,VALID,917.283,VALID,0,VALID,100,VALID,0,VALID,20.1919,VALID,138,VALID,0.270833,
2004-11-30, 02:21:00,VALID,917.274,VALID,0,VALID,100,VALID,0,VALID,20.1884,VALID,134,VALID,0.450391,
2004-11-30, 02:22:00,VALID,917.282,VALID,0,VALID,100,VALID,0,VALID,20.1819,VALID,130,VALID,0.318979,
2004-11-30, 02:23:00,VALID,917.278,VALID,0,VALID,100,VALID,0,VALID,20.1919,VALID,122,VALID,0.342448,
2004-11-30, 02:24:00,VALID,917.272,VALID,0,VALID,100,VALID,0,VALID,20.1723,VALID,153,VALID,0.63151,
2004-11-30, 02:25:00,VALID,917.269,VALID,0,VALID,100,VALID,0,VALID,20.1792,VALID,152,VALID,0.612351,
2004-11-30, 02:26:00,VALID,917.259,VALID,0,VALID,100,VALID,0,VALID,20.1887,VALID,133,VALID,0.515816,
2004-11-30, 02:27:00,VALID,917.257,VALID,0,VALID,100,VALID,0.0339617,VALID,20.1752,VALID,132,VALID,0.525641,
2004-11-30, 02:28:00,VALID,917.251,VALID,0,VALID,100,VALID,0,VALID,20.1954,VALID,138,VALID,0.80785,
2004-11-30, 02:29:00,VALID,917.242,VALID,0,VALID,100,VALID,0.0169808,VALID,20.1889,VALID,165,VALID,0.655664,
2004-11-30, 02:30:00,VALID,917.236,VALID,0,VALID,100,VALID,0.0169808,VALID,20.1854,VALID,150,VALID,0.858132,
2004-11-30, 02:31:00,VALID,917.211,VALID,0,VALID,100,VALID,-0.0169808,VALID,20.1785,VALID,171,VALID,1.10007,
2004-11-30, 02:32:00,VALID,917.207,VALID,0,VALID,100,VALID,0.0169808,VALID,20.1817,VALID,153,VALID,0.858994,
2004-11-30, 02:33:00,VALID,917.194,VALID,0,VALID,100,VALID,0,VALID,20.1924,VALID,151,VALID,0.856027,
2004-11-30, 02:34:00,VALID,917.181,VALID,0,VALID,100,VALID,0.0339617,VALID,20.1817,VALID,148,VALID,0.962028,
2004-11-30, 02:35:00,VALID,917.158,VALID,0,VALID,100,VALID,0,VALID,20.1785,VALID,149,VALID,1.23637,
2004-11-30, 02:36:00,VALID,917.147,VALID,0,VALID,100,VALID,0,VALID,20.1752,VALID,159,VALID,0.828125,
2004-11-30, 02:37:00,VALID,917.136,VALID,0,VALID,100,VALID,0.0169808,VALID,20.1819,VALID,156,VALID,0.859375,
2004-11-30, 02:38:00,VALID,917.133,VALID,0,VALID,100,VALID,0.0509425,VALID,20.172,VALID,158,VALID,1.12287,
2004-11-30, 02:39:00,VALID,917.113,VALID,0,VALID,100,VALID,0,VALID,20.1752,VALID,161,VALID,0.758557,
2004-11-30, 02:40:00,VALID,917.113,VALID,0,VALID,100,VALID,0.0339617,VALID,20.172,VALID,154,VALID,0.574591,
2004-11-30, 02:41:00,VALID,917.081,VALID,0,VALID,100,VALID,0.0509425,VALID,20.1693,VALID,157,VALID,0.365039,
2004-11-30, 02:42:00,VALID,917.071,VALID,0,VALID,100,VALID,0,VALID,20.169,VALID,151,VALID,0.624809,
2004-11-30, 02:43:00,VALID,917.062,VALID,0,VALID,100,VALID,0,VALID,20.1559,VALID,196,VALID,0.533398,
2004-11-30, 02:44:00,VALID,917.038,VALID,0,VALID,100,VALID,0.0339617,VALID,20.1454,VALID,156,VALID,0.928711,
2004-11-30, 02:45:00,VALID,917.025,VALID,0,VALID,100,VALID,0,VALID,20.1427,VALID,152,VALID,1.12979,
2004-11-30, 02:46:00,VALID,917.016,VALID,0,VALID,100,VALID,0.0169808,VALID,20.1397,VALID,170,VALID,1.21312,
2004-11-30, 02:47:00,VALID,917.003,VALID,0,VALID,100,VALID,-0.0849042,VALID,20.144,VALID,219,VALID,0.622452,
2004-11-30, 02:48:00,VALID,916.978,VALID,0,VALID,100,VALID,-0.0849042,VALID,20.1606,VALID,190,VALID,0.531055,
2004-11-30, 02:49:00,VALID,916.97,VALID,0,VALID,100,VALID,-0.101885,VALID,20.1477,VALID,137,VALID,0.553544,
2004-11-30, 02:50:00,VALID,916.966,VALID,0,VALID,100,VALID,-0.101885,VALID,20.1544,VALID,148,VALID,0.344815,
2004-11-30, 02:51:00,VALID,916.963,VALID,0,VALID,100,VALID,-0.0849042,VALID,20.145,VALID,146,VALID,0.0152853,
2004-11-30, 02:52:00,VALID,916.938,VALID,0,VALID,100,VALID,-0.101885,VALID,20.1383,VALID,146,VALID,0,
2004-11-30, 02:53:00,VALID,916.928,VALID,0,VALID,100,VALID,-0.101885,VALID,20.1383,VALID,146,VALID,0.00199855,
2004-11-30, 02:54:00,VALID,916.916,VALID,0,VALID,100,VALID,-0.118866,VALID,20.1385,VALID,146,VALID,0.00545058,
2004-11-30, 02:55:00,VALID,916.904,VALID,0,VALID,100,VALID,-0.101885,VALID,20.1246,VALID,147,VALID,0.0249256,
2004-11-30, 02:56:00,VALID,916.901,VALID,0,VALID,100,VALID,-0.101885,VALID,20.1248,VALID,153,VALID,0.129084,
2004-11-30, 02:57:00,VALID,916.899,VALID,0,VALID,100,VALID,-0.0679233,VALID,20.1318,VALID,153,VALID,0.196646,
2004-11-30, 02:58:00,VALID,916.884,VALID,0,VALID,100,VALID,-0.0679233,VALID,20.1221,VALID,208,VALID,0.480373,
2004-11-30, 02:59:00,VALID,916.867,VALID,0,VALID,100,VALID,-0.101885,VALID,20.096,VALID,228,VALID,0.382639,
2004-11-30, 03:00:00,VALID,916.866,VALID,0,VALID,100,VALID,-0.0679233,VALID,20.0893,VALID,229,VALID,0.50071,
2004-11-30, 03:01:00,VALID,916.856,VALID,0,VALID,100,VALID,-0.101885,VALID,20.0898,VALID,230,VALID,0.213542,
2004-11-30, 03:02:00,VALID,916.844,VALID,0,VALID,100,VALID,-0.101885,VALID,20.0836,VALID,254,VALID,0.262091,
2004-11-30, 03:03:00,VALID,916.819,VALID,0,VALID,100,VALID,-0.0849042,VALID,20.1025,VALID,266,VALID,0.283975,
2004-11-30, 03:04:00,VALID,916.799,VALID,0,VALID,100,VALID,-0.101885,VALID,20.0992,VALID,267,VALID,0.237043,
2004-11-30, 03:05:00,VALID,916.786,VALID,0,VALID,100,VALID,-0.0849042,VALID,20.1027,VALID,276,VALID,0.319754,
2004-11-30, 03:06:00,VALID,916.788,VALID,0,VALID,100,VALID,-0.0849042,VALID,20.1022,VALID,277,VALID,0.0202415,
2004-11-30, 03:07:00,VALID,916.77,VALID,0,VALID,100,VALID,-0.101885,VALID,20.1027,VALID,277,VALID,0,
2004-11-30, 03:08:00,VALID,916.757,VALID,0,VALID,100,VALID,-0.101885,VALID,20.0963,VALID,277,VALID,0,
2004-11-30, 03:09:00,VALID,916.742,VALID,0,VALID,100,VALID,-0.101885,VALID,20.0895,VALID,277,VALID,0,
2004-11-30, 03:10:00,VALID,916.728,VALID,0,VALID,100,VALID,-0.101885,VALID,20.0895,VALID,277,VALID,0.175868,
2004-11-30, 03:11:00,VALID,916.738,VALID,0,VALID,100,VALID,-0.101885,VALID,20.0925,VALID,277,VALID,0.174805,
2004-11-30, 03:12:00,VALID,916.732,VALID,0,VALID,100,VALID,-0.101885,VALID,20.1032,VALID,265,VALID,0.368886,
2004-11-30, 03:13:00,VALID,916.727,VALID,0,VALID,100,VALID,-0.0679233,VALID,20.0766,VALID,260,VALID,0.0946584,
2004-11-30, 03:14:00,VALID,916.731,VALID,0,VALID,100,VALID,-0.0849042,VALID,20.0799,VALID,260,VALID,0.241815,
2004-11-30, 03:15:00,VALID,916.73,VALID,0,VALID,100,VALID,-0.0509425,VALID,20.0669,VALID,259,VALID,0.311592,
2004-11-30, 03:16:00,VALID,916.719,VALID,0,VALID,100,VALID,-0.0849042,VALID,20.0669,VALID,249,VALID,0.405401,
2004-11-30, 03:17:00,VALID,916.72,VALID,0,VALID,100,VALID,0.0169808,VALID,20.0662,VALID,245,VALID,0.335366,
2004-11-30, 03:18:00,VALID,916.718,VALID,0,VALID,100,VALID,0,VALID,20.0495,VALID,240,VALID,0.384201,
2004-11-30, 03:19:00,VALID,916.706,VALID,0,VALID,100,VALID,0.0169808,VALID,20.0229,VALID,220,VALID,0.501065,
2004-11-30, 03:20:00,VALID,916.698,VALID,0,VALID,100,VALID,0.0339617,VALID,20.0269,VALID,220,VALID,0.533537,
2004-11-30, 03:21:00,VALID,916.705,VALID,0,VALID,100,VALID,0,VALID,20.0142,VALID,227,VALID,0.476151,
2004-11-30, 03:22:00,VALID,916.721,VALID,0,VALID,100,VALID,0.0339617,VALID,19.9944,VALID,188,VALID,0.696221,
2004-11-30, 03:23:00,VALID,916.718,VALID,0,VALID,100,VALID,0.0169808,VALID,19.9814,VALID,206,VALID,0.598722,
2004-11-30, 03:24:00,VALID,916.7,VALID,0,VALID,100,VALID,0,VALID,19.9718,VALID,236,VALID,0.630766,
2004-11-30, 03:25:00,VALID,916.703,VALID,0,VALID,100,VALID,0,VALID,19.9653,VALID,243,VALID,0.478743,
2004-11-30, 03:26:00,VALID,916.705,VALID,0,VALID,100,VALID,0.0339617,VALID,19.9683,VALID,247,VALID,0.456287,
2004-11-30, 03:27:00,VALID,916.685,VALID,0,VALID,100,VALID,0.0169808,VALID,19.9852,VALID,247,VALID,0.178416,
2004-11-30, 03:28:00,VALID,916.686,VALID,0,VALID,100,VALID,0.0169808,VALID,19.9747,VALID,250,VALID,0.163881,
2004-11-30, 03:29:00,VALID,916.667,VALID,0,VALID,100,VALID,0,VALID,19.972,VALID,301,VALID,0.810352,
2004-11-30, 03:30:00,VALID,916.665,VALID,0,VALID,100,VALID,0,VALID,19.9526,VALID,308,VALID,0.382631,
2004-11-30, 03:31:00,VALID,916.655,VALID,0,VALID,100,VALID,-0.0169808,VALID,19.9427,VALID,322,VALID,0.329033,
2004-11-30, 03:32:00,VALID,916.657,VALID,0,VALID,100,VALID,-0.0849042,VALID,19.9636,VALID,345,VALID,0.476563,
2004-11-30, 03:33:00,VALID,916.635,VALID,0,VALID,100,VALID,-0.0679233,VALID,19.9638,VALID,349,VALID,0.529167,
2004-11-30, 03:34:00,VALID,916.639,VALID,0,VALID,100,VALID,-0.101885,VALID,19.9738,VALID,12,VALID,0.838216,
2004-11-30, 03:35:00,VALID,916.627,VALID,0,VALID,100,VALID,-0.118866,VALID,19.9676,VALID,15,VALID,0.803234,
2004-11-30, 03:36:00,VALID,916.619,VALID,0,VALID,100,VALID,-0.101885,VALID,19.9509,VALID,16,VALID,0.620094,
2004-11-30, 03:37:00,VALID,916.605,VALID,0,VALID,100,VALID,-0.101885,VALID,19.938,VALID,15,VALID,0.267756,
2004-11-30, 03:38:00,VALID,916.595,VALID,0,VALID,100,VALID,-0.0849042,VALID,19.9253,VALID,15,VALID,0.0530134,
2004-11-30, 03:39:00,VALID,916.595,VALID,0,VALID,100,VALID,-0.101885,VALID,19.9191,VALID,15,VALID,0,
2004-11-30, 03:40:00,VALID,916.579,VALID,0,VALID,100,VALID,-0.0849042,VALID,19.9119,VALID,15,VALID,0,
2004-11-30, 03:41:00,VALID,916.588,VALID,0,VALID,100,VALID,-0.0849042,VALID,19.9156,VALID,15,VALID,0.138529,
2004-11-30, 03:42:00,VALID,916.596,VALID,0,VALID,100,VALID,-0.101885,VALID,19.9059,VALID,294,VALID,0.546484,
2004-11-30, 03:43:00,VALID,916.613,VALID,0,VALID,100,VALID,-0.0849042,VALID,19.9025,VALID,244,VALID,0.553943,
2004-11-30, 03:44:00,VALID,916.63,VALID,0,VALID,100,VALID,-0.118866,VALID,19.903,VALID,244,VALID,0.455412,
2004-11-30, 03:45:00,VALID,916.636,VALID,0,VALID,100,VALID,-0.101885,VALID,19.8895,VALID,244,VALID,0.380394,